Weather History for Asheboro, NC

Change the Weather History Date:

Thursday, April 11, 2013

  Actual Average Record
Temperature  
Mean Temperature 70 °F -  
Max Temperature 80 °F 72 °F 88 °F (1977)
Min Temperature 61 °F 45 °F 27 °F (1960)
Cooling Degree Days 6    
Growing Degree Days 20 (Base 50)    
Moisture  
Dew Point 59 °F    
Average Humidity 67    
Maximum Humidity 94    
Minimum Humidity 45    
Precipitation  
Precipitation 0.00 in - - ()
Sea Level Pressure  
Sea Level Pressure 29.94 in    
Wind  
Wind Speed 9 mph (SSW)    
Max Wind Speed 16 mph    
Max Gust Speed 23 mph    
Visibility 10 miles    
Events      
Averages and records for this station are not official NWS values.
T = Trace of Precipitation, MM = Missing Value Source: NWS Daily Summary

Daily Weather History Graph

Daily Weather History Graph

Search for Another Location

Airport:

Trip Planner

Search our weather history database for the weather conditions in past years. The results will help you decide how hot, cold, wet, or windy it might be!

Date:

Astronomy

Apr. 11, 2013 Rise Set
Actual Time 6:51 AM EDT 7:49 PM EDT
Civil Twilight 6:25 AM EDT 8:15 PM EDT
Nautical Twilight 5:54 AM EDT 8:46 PM EDT
Astronomical Twilight 5:22 AM EDT 9:18 PM EDT
Moon 7:25 AM EDT (4/11) 9:18 PM EDT (4/11)
Length of Visible Light 13h 50m
Length of Day
12h 57m
New Moon, 2% of the Moon is Illuminated
Apr 11
New Moon
Apr 18
First Quarter
Apr 25
Full
May 2
Last Quarter
May 9
New

Hourly Weather History & Observations

Time (EDT) Temp. Heat Index Dew Point Humidity Pressure Visibility Wind Dir Wind Speed Gust Speed Precip Events Conditions
12:15 AM 72.1 °F - 56.5 °F 58% 30.00 in 10.0 mi South 8.1 mph - N/A   Clear
12:35 AM 71.2 °F - 55.9 °F 58% 30.00 in 10.0 mi SSW 11.5 mph 16.1 mph N/A   Clear
12:55 AM 70.7 °F - 55.4 °F 58% 30.00 in 10.0 mi SSW 9.2 mph - N/A   Clear
1:15 AM 70.0 °F - 55.4 °F 60% 30.01 in 10.0 mi SSW 9.2 mph - N/A   Clear
1:35 AM 69.1 °F - 55.4 °F 62% 30.01 in 10.0 mi SSW 11.5 mph - N/A   Clear
1:55 AM 68.4 °F - 55.4 °F 63% 30.01 in 10.0 mi SSW 11.5 mph 18.4 mph N/A   Clear
2:15 AM 67.6 °F - 55.4 °F 65% 30.00 in 10.0 mi SSW 6.9 mph - N/A   Clear
2:35 AM 67.1 °F - 55.8 °F 67% 30.00 in 10.0 mi South 8.1 mph - N/A   Clear
2:55 AM 66.2 °F - 55.9 °F 69% 29.99 in 10.0 mi South 6.9 mph - N/A   Clear
3:15 AM 65.5 °F - 56.3 °F 72% 30.00 in 10.0 mi South 9.2 mph - N/A   Clear
3:35 AM 64.8 °F - 56.8 °F 75% 30.00 in 10.0 mi South 6.9 mph - N/A   Clear
3:55 AM 64.4 °F - 57.2 °F 77% 30.00 in 10.0 mi South 9.2 mph - N/A   Clear
4:15 AM 63.7 °F - 57.4 °F 80% 29.99 in 10.0 mi South 8.1 mph - N/A   Clear
4:35 AM 63.3 °F - 57.6 °F 81% 29.99 in 10.0 mi South 6.9 mph - N/A   Clear
4:55 AM 62.8 °F - 58.1 °F 85% 29.99 in 10.0 mi SSW 10.4 mph - N/A   Clear
5:15 AM 62.6 °F - 58.1 °F 85% 29.99 in 10.0 mi SSW 10.4 mph - N/A   Clear
5:35 AM 62.6 °F - 58.5 °F 86% 29.99 in 10.0 mi South 9.2 mph - N/A   Clear
5:55 AM 62.2 °F - 59.0 °F 89% 29.99 in 10.0 mi SSW 8.1 mph - N/A   Clear
6:35 AM 61.7 °F - 59.5 °F 93% 30.00 in 10.0 mi SSW 6.9 mph - N/A   Scattered Clouds
6:55 AM 61.9 °F - 59.9 °F 93% 30.00 in 10.0 mi SSW 8.1 mph - N/A   Mostly Cloudy
7:15 AM 62.1 °F - 60.1 °F 93% 30.01 in 10.0 mi SSW 9.2 mph - N/A   Overcast
7:35 AM 62.2 °F - 60.3 °F 93% 30.02 in 10.0 mi SSW 8.1 mph - N/A   Overcast
7:55 AM 62.2 °F - 60.4 °F 94% 30.03 in 10.0 mi SSW 5.8 mph - N/A   Overcast
8:15 AM 62.6 °F - 60.4 °F 93% 30.03 in 10.0 mi SW 5.8 mph - N/A   Overcast
8:35 AM 63.0 °F - 60.8 °F 93% 30.03 in 10.0 mi SSW 9.2 mph - N/A   Overcast
8:55 AM 63.3 °F - 60.8 °F 91% 30.03 in 10.0 mi SSW 10.4 mph - N/A   Overcast
9:35 AM 64.4 °F - 60.8 °F 88% 30.03 in 10.0 mi SSW 6.9 mph - N/A   Overcast
9:55 AM 65.1 °F - 60.8 °F 86% 30.02 in 10.0 mi SSW 5.8 mph - N/A   Overcast
10:15 AM 65.5 °F - 60.8 °F 85% 30.03 in 10.0 mi SSW 8.1 mph - N/A   Overcast
10:35 AM 66.2 °F - 61.0 °F 83% 30.03 in 10.0 mi SSW 4.6 mph - N/A   Overcast
10:55 AM 66.7 °F - 61.0 °F 82% 30.03 in 10.0 mi SSW 9.2 mph - N/A   Overcast
11:15 AM 68.0 °F - 61.2 °F 79% 30.03 in 10.0 mi SSW 6.9 mph - N/A   Overcast
11:35 AM 69.6 °F - 61.3 °F 75% 30.02 in 10.0 mi SW 6.9 mph - N/A   Mostly Cloudy
11:55 AM 70.5 °F - 61.2 °F 72% 30.01 in 10.0 mi SW 5.8 mph - N/A   Mostly Cloudy
12:15 PM 71.4 °F - 61.2 °F 70% 30.01 in 10.0 mi WSW 6.9 mph - N/A   Mostly Cloudy
12:35 PM 72.7 °F - 60.6 °F 66% 29.99 in 10.0 mi SW 9.2 mph - N/A   Scattered Clouds
12:55 PM 74.5 °F - 59.5 °F 60% 29.98 in 10.0 mi SW 12.7 mph 17.3 mph N/A   Scattered Clouds
1:15 PM 75.4 °F - 59.4 °F 57% 29.97 in 10.0 mi SSW 12.7 mph 20.7 mph N/A   Scattered Clouds
1:35 PM 75.4 °F - 59.7 °F 58% 29.96 in 10.0 mi SW 11.5 mph - N/A   Scattered Clouds
1:55 PM 76.1 °F - 58.8 °F 55% 29.96 in 10.0 mi SSW 12.7 mph 17.3 mph N/A   Scattered Clouds
2:15 PM 77.0 °F - 57.7 °F 51% 29.94 in 10.0 mi SSW 10.4 mph 20.7 mph N/A   Clear
2:35 PM 77.9 °F - 57.6 °F 49% 29.92 in 10.0 mi SSW 8.1 mph - N/A   Clear
2:55 PM 78.8 °F - 56.5 °F 46% 29.92 in 10.0 mi SSW 13.8 mph 18.4 mph N/A   Scattered Clouds
3:15 PM 79.5 °F - 56.7 °F 45% 29.91 in 10.0 mi SSW 11.5 mph 17.3 mph N/A   Scattered Clouds
3:35 PM 79.5 °F - 56.5 °F 45% 29.90 in 10.0 mi SSW 16.1 mph 20.7 mph N/A   Scattered Clouds
3:55 PM 80.4 °F 80.7 °F 57.0 °F 45% 29.89 in 10.0 mi SSW 15.0 mph 23.0 mph N/A   Scattered Clouds
4:15 PM 79.7 °F - 57.4 °F 46% 29.87 in 10.0 mi South 6.9 mph 16.1 mph N/A   Scattered Clouds
4:35 PM 79.7 °F - 57.4 °F 46% 29.86 in 10.0 mi SW 11.5 mph - N/A   Scattered Clouds
4:55 PM 79.9 °F - 57.0 °F 45% 29.85 in 10.0 mi SSW 11.5 mph 19.6 mph N/A   Scattered Clouds
5:15 PM 80.1 °F 80.4 °F 57.0 °F 45% 29.85 in 10.0 mi SSW 12.7 mph 18.4 mph N/A   Clear
5:35 PM 79.7 °F - 56.8 °F 45% 29.84 in 10.0 mi SSW 11.5 mph 17.3 mph N/A   Scattered Clouds
5:55 PM 80.1 °F 80.4 °F 57.2 °F 45% 29.84 in 10.0 mi South 9.2 mph 17.3 mph N/A   Scattered Clouds
6:15 PM 79.7 °F - 57.7 °F 47% 29.84 in 10.0 mi South 6.9 mph - N/A   Mostly Cloudy
6:35 PM 79.0 °F - 58.1 °F 49% 29.84 in 10.0 mi SSE 8.1 mph - N/A   Mostly Cloudy
6:55 PM 78.3 °F - 58.3 °F 50% 29.84 in 10.0 mi South 10.4 mph - N/A   Mostly Cloudy
7:15 PM 77.9 °F - 58.5 °F 51% 29.84 in 10.0 mi SSE 6.9 mph - N/A   Scattered Clouds
7:35 PM 76.8 °F - 59.0 °F 54% 29.83 in 10.0 mi SSE 4.6 mph - N/A   Clear
7:55 PM 76.5 °F - 59.0 °F 55% 29.83 in 10.0 mi SSE 3.5 mph - N/A   Clear
8:15 PM 75.2 °F - 59.4 °F 58% 29.82 in 10.0 mi South 6.9 mph - N/A   Clear
8:35 PM 74.1 °F - 59.9 °F 61% 29.82 in 10.0 mi SSE 5.8 mph - N/A   Clear
8:55 PM 74.7 °F - 60.1 °F 60% 29.82 in 10.0 mi South 5.8 mph - N/A   Scattered Clouds
9:15 PM 74.7 °F - 60.4 °F 61% 29.83 in 10.0 mi South 10.4 mph - N/A   Mostly Cloudy
9:35 PM 74.7 °F - 61.7 °F 64% 29.83 in 10.0 mi South 10.4 mph - N/A   Scattered Clouds
9:55 PM 74.3 °F - 62.6 °F 67% 29.83 in 10.0 mi South 8.1 mph 16.1 mph N/A   Clear
10:15 PM 73.8 °F - 63.7 °F 71% 29.82 in 10.0 mi SSE 9.2 mph 16.1 mph N/A   Scattered Clouds
10:35 PM 73.4 °F - 63.9 °F 72% 29.82 in 10.0 mi South 10.4 mph 17.3 mph N/A   Clear
10:55 PM 72.9 °F - 63.5 °F 72% 29.82 in 10.0 mi South 10.4 mph 18.4 mph N/A   Clear
11:15 PM 72.5 °F - 63.5 °F 73% 29.83 in 10.0 mi South 10.4 mph 16.1 mph N/A   Clear
11:35 PM 72.1 °F - 63.1 °F 73% 29.83 in 10.0 mi South 9.2 mph - N/A   Scattered Clouds
11:55 PM 71.6 °F - 63.3 °F 75% 29.82 in 10.0 mi SSE 8.1 mph 20.7 mph N/A   Mostly Cloudy